Time,TemperatureF,DewpointF,PressureIn,WindDirection,WindDirectionDegrees,WindSpeedMPH,WindSpeedGustMPH,Humidity,HourlyPrecipIn,Conditions,Clouds,dailyrainin,SoftwareType,DateUTC
2013-01-26 00:01:00,36.7,14.7,29.91,SE,146,6.0,9.6,40,0.00,,,-99.99,FreeWX 2.04,2013-01-26 07:01:00,
2013-01-26 00:11:00,36.1,15.3,29.91,South,180,2.0,8.7,42,0.00,,,-99.99,FreeWX 2.04,2013-01-26 07:11:00,
2013-01-26 00:21:00,36.1,14.7,29.91,SE,144,4.0,7.8,41,0.00,,,-99.99,FreeWX 2.04,2013-01-26 07:21:00,
2013-01-26 00:31:00,36.1,15.3,29.91,SE,129,5.0,8.7,42,0.00,,,-99.99,FreeWX 2.04,2013-01-26 07:31:00,
2013-01-26 00:41:00,36.1,14.7,29.91,ESE,121,5.0,8.3,41,0.00,,,-99.99,FreeWX 2.04,2013-01-26 07:41:00,
2013-01-26 00:51:00,36.0,16.2,29.91,SE,124,4.0,9.2,44,0.00,,,-99.99,FreeWX 2.04,2013-01-26 07:51:00,
2013-01-26 01:01:00,35.6,16.3,29.91,East,85,3.0,6.7,45,0.00,,,-99.99,FreeWX 2.04,2013-01-26 08:01:00,
2013-01-26 01:11:00,35.6,17.4,29.91,East,101,3.0,6.7,47,0.00,,,-99.99,FreeWX 2.04,2013-01-26 08:11:00,
2013-01-26 01:21:00,35.2,17.1,29.91,ESE,123,2.0,6.3,47,0.00,,,-99.99,FreeWX 2.04,2013-01-26 08:21:00,
2013-01-26 01:31:00,35.1,17.8,29.91,East,101,2.0,4.9,49,0.00,,,-99.99,FreeWX 2.04,2013-01-26 08:31:00,
2013-01-26 01:41:00,35.4,18.7,29.91,ENE,78,3.0,6.7,50,0.00,,,-99.99,FreeWX 2.04,2013-01-26 08:41:00,
2013-01-26 01:51:00,36.0,18.7,29.88,ENE,62,4.0,7.8,49,0.00,,,-99.99,FreeWX 2.04,2013-01-26 08:51:00,
2013-01-26 02:01:00,36.3,18.5,29.88,East,83,3.0,6.7,48,0.00,,,-99.99,FreeWX 2.04,2013-01-26 09:01:00,
2013-01-26 02:11:00,36.3,18.0,29.88,North,-999,0.0,5.8,47,0.00,,,-99.99,FreeWX 2.04,2013-01-26 09:11:00,
2013-01-26 02:21:00,36.0,18.1,29.88,North,-999,0.0,4.0,48,0.00,,,-99.99,FreeWX 2.04,2013-01-26 09:21:00,
2013-01-26 02:31:00,35.8,18.5,29.88,North,-999,0.0,3.1,49,0.00,,,-99.99,FreeWX 2.04,2013-01-26 09:31:00,
2013-01-26 02:41:00,35.4,18.7,29.88,North,-999,0.0,0.0,50,0.00,,,-99.99,FreeWX 2.04,2013-01-26 09:41:00,
2013-01-26 02:51:00,35.1,18.9,29.88,North,-999,0.0,0.0,51,0.00,,,-99.99,FreeWX 2.04,2013-01-26 09:51:00,
2013-01-26 03:01:00,34.3,18.5,29.88,North,-999,0.0,0.0,52,0.00,,,-99.99,FreeWX 2.04,2013-01-26 10:01:00,
2013-01-26 03:11:00,34.7,18.5,29.88,North,-999,0.0,0.0,51,0.00,,,-99.99,FreeWX 2.04,2013-01-26 10:11:00,
2013-01-26 03:21:00,34.3,18.5,29.88,North,-999,0.0,0.0,52,0.00,,,-99.99,FreeWX 2.04,2013-01-26 10:21:00,
2013-01-26 03:31:00,34.3,19.0,29.88,SSE,150,2.0,4.0,53,0.00,,,-99.99,FreeWX 2.04,2013-01-26 10:31:00,
2013-01-26 03:41:00,34.7,18.5,29.88,North,-999,0.0,3.6,51,0.00,,,-99.99,FreeWX 2.04,2013-01-26 10:41:00,
2013-01-26 03:51:00,34.3,18.5,29.85,North,-999,0.0,3.6,52,0.00,,,-99.99,FreeWX 2.04,2013-01-26 10:51:00,
2013-01-26 04:01:00,35.1,18.9,29.85,ESE,104,2.0,5.8,51,0.00,,,-99.99,FreeWX 2.04,2013-01-26 11:01:00,
2013-01-26 04:11:00,35.4,18.7,29.85,ESE,105,1.0,5.8,50,0.00,,,-99.99,FreeWX 2.04,2013-01-26 11:11:00,
2013-01-26 04:21:00,35.6,18.3,29.85,North,-999,0.0,3.1,49,0.00,,,-99.99,FreeWX 2.04,2013-01-26 11:21:00,
2013-01-26 04:31:00,36.1,18.3,29.85,East,98,1.0,6.3,48,0.00,,,-99.99,FreeWX 2.04,2013-01-26 11:31:00,
2013-01-26 04:41:00,35.1,17.8,29.85,South,185,2.0,6.9,49,0.00,,,-99.99,FreeWX 2.04,2013-01-26 11:41:00,
2013-01-26 04:51:00,34.3,18.5,29.85,South,183,1.0,5.8,52,0.00,,,-99.99,FreeWX 2.04,2013-01-26 11:51:00,
2013-01-26 05:01:00,34.7,19.4,29.85,North,-999,0.0,3.6,53,0.00,,,-99.99,FreeWX 2.04,2013-01-26 12:01:00,
2013-01-26 05:11:00,35.2,18.9,29.85,ESE,111,2.0,5.4,51,0.00,,,-99.99,FreeWX 2.04,2013-01-26 12:11:00,
2013-01-26 05:21:00,35.6,19.2,29.85,East,101,2.0,4.5,51,0.00,,,-99.99,FreeWX 2.04,2013-01-26 12:21:00,
2013-01-26 05:31:00,35.8,19.4,29.85,ESE,102,2.0,6.7,51,0.00,,,-99.99,FreeWX 2.04,2013-01-26 12:31:00,
2013-01-26 05:41:00,35.6,19.2,29.85,North,-999,0.0,3.6,51,0.00,,,-99.99,FreeWX 2.04,2013-01-26 12:41:00,
2013-01-26 05:51:00,35.2,19.4,29.85,North,-999,0.0,4.0,52,0.00,,,-99.99,FreeWX 2.04,2013-01-26 12:51:00,
2013-01-26 06:01:00,34.9,19.9,29.85,North,-999,0.0,0.0,54,0.00,,,-99.99,FreeWX 2.04,2013-01-26 13:01:00,
2013-01-26 06:11:00,34.3,20.7,29.85,North,-999,0.0,0.0,57,0.00,,,-99.99,FreeWX 2.04,2013-01-26 13:11:00,
2013-01-26 06:21:00,34.2,21.4,29.85,North,-999,0.0,0.0,59,0.00,,,-99.99,FreeWX 2.04,2013-01-26 13:21:00,
2013-01-26 06:31:00,34.0,21.9,29.85,North,-999,0.0,0.0,61,0.00,,,-99.99,FreeWX 2.04,2013-01-26 13:31:00,
2013-01-26 06:41:00,34.0,22.6,29.85,North,-999,0.0,0.0,63,0.00,,,-99.99,FreeWX 2.04,2013-01-26 13:41:00,
2013-01-26 06:51:00,33.8,23.0,29.85,North,-999,0.0,0.0,64,0.00,,,-99.99,FreeWX 2.04,2013-01-26 13:51:00,
2013-01-26 07:02:00,34.0,22.6,29.85,North,-999,0.0,0.0,63,0.00,,,-99.99,FreeWX 2.04,2013-01-26 14:02:00,
2013-01-26 07:12:00,34.3,23.0,29.85,ESE,122,2.0,5.4,63,0.00,,,-99.99,FreeWX 2.04,2013-01-26 14:12:00,
2013-01-26 07:22:00,34.2,22.5,29.82,ESE,111,3.0,5.8,62,0.00,,,-99.99,FreeWX 2.04,2013-01-26 14:22:00,
2013-01-26 07:32:00,34.3,23.0,29.82,SE,128,4.0,6.9,63,0.00,,,-99.99,FreeWX 2.04,2013-01-26 14:32:00,
2013-01-26 07:42:00,34.3,23.0,29.82,ESE,121,4.0,5.8,63,0.00,,,-99.99,FreeWX 2.04,2013-01-26 14:42:00,
2013-01-26 07:52:00,34.7,23.0,29.82,ESE,118,2.0,4.9,62,0.00,,,-99.99,FreeWX 2.04,2013-01-26 14:52:00,
2013-01-26 08:02:00,34.9,22.8,29.82,North,-999,0.0,4.0,61,0.00,,,-99.99,FreeWX 2.04,2013-01-26 15:02:00,
2013-01-26 08:12:00,35.2,22.3,29.82,SSE,153,2.0,4.5,59,0.00,,,-99.99,FreeWX 2.04,2013-01-26 15:12:00,
2013-01-26 08:22:00,35.1,22.3,29.82,SSE,162,2.0,4.0,59,0.00,,,-99.99,FreeWX 2.04,2013-01-26 15:22:00,
2013-01-26 08:32:00,34.9,22.5,29.82,SE,133,2.0,4.9,60,0.00,,,-99.99,FreeWX 2.04,2013-01-26 15:32:00,
2013-01-26 08:42:00,35.1,23.4,29.82,SE,128,3.0,5.4,62,0.00,,,-99.99,FreeWX 2.04,2013-01-26 15:42:00,
2013-01-26 08:52:00,35.4,23.4,29.82,SE,125,4.0,6.3,61,0.00,,,-99.99,FreeWX 2.04,2013-01-26 15:52:00,
2013-01-26 09:02:00,36.1,22.5,29.82,ESE,109,5.0,10.1,57,0.00,,,-99.99,FreeWX 2.04,2013-01-26 16:02:00,
2013-01-26 09:12:00,36.5,21.9,29.82,ESE,122,5.0,9.6,55,0.00,,,-99.99,FreeWX 2.04,2013-01-26 16:12:00,
2013-01-26 09:22:00,37.2,21.2,29.82,SE,125,6.0,11.0,52,0.00,,,-99.99,FreeWX 2.04,2013-01-26 16:22:00,
2013-01-26 09:32:00,37.9,21.0,29.82,ESE,120,3.0,6.9,50,0.00,,,-99.99,FreeWX 2.04,2013-01-26 16:32:00,
2013-01-26 09:42:00,38.1,19.8,29.82,SE,129,5.0,8.3,47,0.00,,,-99.99,FreeWX 2.04,2013-01-26 16:42:00,
2013-01-26 09:52:00,38.5,19.9,29.82,SE,127,2.0,7.8,47,0.00,,,-99.99,FreeWX 2.04,2013-01-26 16:52:00,
2013-01-26 10:02:00,37.6,20.7,29.82,North,-999,0.0,0.0,50,0.00,,,-99.99,FreeWX 2.04,2013-01-26 17:02:00,
2013-01-26 10:12:00,36.9,20.8,29.82,North,-999,0.0,3.6,52,0.00,,,-99.99,FreeWX 2.04,2013-01-26 17:12:00,
2013-01-26 10:22:00,36.9,21.4,29.82,North,-999,0.0,3.1,53,0.00,,,-99.99,FreeWX 2.04,2013-01-26 17:22:00,
2013-01-26 10:32:00,37.0,21.6,29.82,North,-999,0.0,0.0,53,0.00,,,-99.99,FreeWX 2.04,2013-01-26 17:32:00,
2013-01-26 10:42:00,37.0,21.6,29.82,North,-999,0.0,3.6,53,0.00,,,-99.99,FreeWX 2.04,2013-01-26 17:42:00,
2013-01-26 10:52:00,37.8,21.7,29.82,North,-999,0.0,0.0,52,0.00,,,-99.99,FreeWX 2.04,2013-01-26 17:52:00,
2013-01-26 11:02:00,38.8,22.3,29.82,North,-999,0.0,0.0,51,0.00,,,-99.99,FreeWX 2.04,2013-01-26 18:02:00,
2013-01-26 11:12:00,39.4,20.8,29.82,North,-999,0.0,0.0,47,0.00,,,-99.99,FreeWX 2.04,2013-01-26 18:12:00,
2013-01-26 11:22:00,39.0,21.0,29.82,North,-999,0.0,3.6,48,0.00,,,-99.99,FreeWX 2.04,2013-01-26 18:22:00,
2013-01-26 11:32:00,39.7,20.7,29.82,North,-999,0.0,0.0,46,0.00,,,-99.99,FreeWX 2.04,2013-01-26 18:32:00,
2013-01-26 11:42:00,40.5,19.8,29.82,North,-999,0.0,3.1,43,0.00,,,-99.99,FreeWX 2.04,2013-01-26 18:42:00,
2013-01-26 11:52:00,40.8,19.6,29.79,North,-999,0.0,0.0,42,0.00,,,-99.99,FreeWX 2.04,2013-01-26 18:52:00,
2013-01-26 12:02:00,40.1,18.9,29.79,North,-999,0.0,0.0,42,0.00,,,-99.99,FreeWX 2.04,2013-01-26 19:02:00,
2013-01-26 12:12:00,40.1,19.9,29.79,North,-999,0.0,0.0,44,0.00,,,-99.99,FreeWX 2.04,2013-01-26 19:12:00,
2013-01-26 12:22:00,42.1,18.9,29.79,SE,146,1.0,7.4,39,0.00,,,-99.99,FreeWX 2.04,2013-01-26 19:22:00,
2013-01-26 12:32:00,43.0,19.2,29.79,South,186,2.0,7.4,38,0.00,,,-99.99,FreeWX 2.04,2013-01-26 19:32:00,
2013-01-26 12:42:00,42.3,18.5,29.79,WNW,282,4.0,6.7,38,0.00,,,-99.99,FreeWX 2.04,2013-01-26 19:42:00,
2013-01-26 12:52:00,43.5,17.8,29.76,West,277,4.0,6.7,35,0.00,,,-99.99,FreeWX 2.04,2013-01-26 19:52:00,
2013-01-26 13:02:00,41.5,17.8,29.76,West,272,5.0,8.3,38,0.00,,,-99.99,FreeWX 2.04,2013-01-26 20:02:00,
2013-01-26 13:12:00,42.6,18.9,29.76,WNW,295,5.0,7.8,38,0.00,,,-99.99,FreeWX 2.04,2013-01-26 20:12:00,
2013-01-26 13:22:00,43.0,16.5,29.76,West,279,5.0,8.3,34,0.00,,,-99.99,FreeWX 2.04,2013-01-26 20:22:00,
2013-01-26 13:32:00,43.2,17.4,29.76,West,263,3.0,7.4,35,0.00,,,-99.99,FreeWX 2.04,2013-01-26 20:32:00,
2013-01-26 13:42:00,43.5,17.8,29.76,North,-999,0.0,4.9,35,0.00,,,-99.99,FreeWX 2.04,2013-01-26 20:42:00,
2013-01-26 13:52:00,41.9,18.1,29.76,West,269,4.0,7.4,38,0.00,,,-99.99,FreeWX 2.04,2013-01-26 20:52:00,
2013-01-26 14:02:00,40.5,18.1,29.76,West,272,4.0,7.4,40,0.00,,,-99.99,FreeWX 2.04,2013-01-26 21:02:00,
2013-01-26 14:12:00,40.3,19.0,29.76,West,272,3.0,5.8,42,0.00,,,-99.99,FreeWX 2.04,2013-01-26 21:12:00,
2013-01-26 14:22:00,40.3,19.0,29.74,West,274,1.0,5.4,42,0.00,,,-99.99,FreeWX 2.04,2013-01-26 21:22:00,
2013-01-26 14:32:00,39.6,19.9,29.74,West,271,2.0,6.3,45,0.00,,,-99.99,FreeWX 2.04,2013-01-26 21:32:00,
2013-01-26 14:42:00,39.2,21.2,29.74,North,-999,0.0,5.4,48,0.00,,,-99.99,FreeWX 2.04,2013-01-26 21:42:00,
2013-01-26 14:52:00,38.7,21.6,29.74,North,-999,0.0,0.0,50,0.00,,,-99.99,FreeWX 2.04,2013-01-26 21:52:00,
2013-01-26 15:02:00,37.9,21.9,29.74,North,-999,0.0,0.0,52,0.00,,,-99.99,FreeWX 2.04,2013-01-26 22:02:00,
2013-01-26 15:12:00,37.8,22.6,29.74,North,-999,0.0,0.0,54,0.00,,,-99.99,FreeWX 2.04,2013-01-26 22:12:00,
2013-01-26 15:22:00,37.8,22.6,29.74,North,-999,0.0,0.0,54,0.00,,,-99.99,FreeWX 2.04,2013-01-26 22:22:00,
2013-01-26 15:32:00,38.3,23.2,29.74,North,-999,0.0,0.0,54,0.00,,,-99.99,FreeWX 2.04,2013-01-26 22:32:00,
2013-01-26 15:42:00,37.8,23.5,29.74,North,-999,0.0,0.0,56,0.00,,,-99.99,FreeWX 2.04,2013-01-26 22:42:00,
2013-01-26 15:52:00,37.9,25.0,29.74,North,-999,0.0,0.0,59,0.00,,,-99.99,FreeWX 2.04,2013-01-26 22:52:00,
2013-01-26 16:02:00,38.1,25.2,29.74,North,-999,0.0,0.0,59,0.00,,,-99.99,FreeWX 2.04,2013-01-26 23:02:00,
2013-01-26 16:12:00,38.5,25.0,29.74,North,-999,0.0,0.0,58,0.00,,,-99.99,FreeWX 2.04,2013-01-26 23:12:00,
2013-01-26 16:22:00,38.1,25.2,29.74,North,-999,0.0,0.0,59,0.00,,,-99.99,FreeWX 2.04,2013-01-26 23:22:00,
2013-01-26 16:32:00,37.9,24.1,29.74,North,-999,0.0,4.9,57,0.00,,,-99.99,FreeWX 2.04,2013-01-26 23:32:00,
2013-01-26 16:42:00,37.6,22.8,29.74,SE,130,1.0,4.5,55,0.00,,,-99.99,FreeWX 2.04,2013-01-26 23:42:00,
2013-01-26 16:52:00,37.2,23.0,29.71,North,-999,0.0,4.5,56,0.00,,,-99.99,FreeWX 2.04,2013-01-26 23:52:00,
2013-01-26 17:02:00,37.0,23.2,29.71,North,-999,0.0,0.0,57,0.00,,,-99.99,FreeWX 2.04,2013-01-27 00:02:00,
2013-01-26 17:12:00,37.4,23.5,29.71,North,-999,0.0,4.9,57,0.00,,,-99.99,FreeWX 2.04,2013-01-27 00:12:00,
2013-01-26 17:22:00,37.2,23.0,29.71,ESE,114,2.0,5.4,56,0.00,,,-99.99,FreeWX 2.04,2013-01-27 00:22:00,
2013-01-26 17:32:00,37.0,23.2,29.71,ESE,122,4.0,5.8,57,0.00,,,-99.99,FreeWX 2.04,2013-01-27 00:32:00,
2013-01-26 17:42:00,36.7,23.4,29.71,ESE,106,2.0,4.5,58,0.00,,,-99.99,FreeWX 2.04,2013-01-27 00:42:00,
2013-01-26 17:52:00,36.7,23.7,29.71,ESE,108,3.0,5.8,59,0.00,,,-99.99,FreeWX 2.04,2013-01-27 00:52:00,
2013-01-26 18:02:00,36.3,23.7,29.71,ESE,116,3.0,4.9,60,0.00,,,-99.99,FreeWX 2.04,2013-01-27 01:02:00,
2013-01-26 18:12:00,36.0,23.9,29.71,ESE,116,1.0,4.5,61,0.00,,,-99.99,FreeWX 2.04,2013-01-27 01:12:00,
2013-01-26 18:22:00,36.1,24.4,29.71,North,-999,0.0,4.5,62,0.00,,,-99.99,FreeWX 2.04,2013-01-27 01:22:00,
2013-01-26 18:32:00,36.3,24.3,29.71,ESE,113,4.0,7.8,61,0.00,,,-99.99,FreeWX 2.04,2013-01-27 01:32:00,
2013-01-26 18:42:00,36.3,23.7,29.71,ESE,104,4.0,6.9,60,0.00,,,-99.99,FreeWX 2.04,2013-01-27 01:42:00,
2013-01-26 18:52:00,36.0,23.9,29.71,ESE,102,3.0,6.7,61,0.00,,,-99.99,FreeWX 2.04,2013-01-27 01:52:00,
2013-01-26 19:02:00,35.8,24.1,29.71,ESE,116,2.0,6.3,62,0.00,,,-99.99,FreeWX 2.04,2013-01-27 02:02:00,
2013-01-26 19:12:00,35.8,24.4,29.71,ESE,114,4.0,6.7,63,0.00,,,-99.99,FreeWX 2.04,2013-01-27 02:12:00,
2013-01-26 19:22:00,35.8,24.8,29.71,ESE,122,4.0,6.3,64,0.00,,,-99.99,FreeWX 2.04,2013-01-27 02:22:00,
2013-01-26 19:32:00,35.8,24.4,29.71,SE,124,5.0,8.3,63,0.00,,,-99.99,FreeWX 2.04,2013-01-27 02:32:00,
2013-01-26 19:43:00,35.8,24.4,29.71,ESE,119,4.0,7.4,63,0.00,,,-99.99,FreeWX 2.04,2013-01-27 02:43:00,
2013-01-26 19:53:00,35.6,24.3,29.71,ESE,118,4.0,7.8,63,0.00,,,-99.99,FreeWX 2.04,2013-01-27 02:53:00,
2013-01-26 20:03:00,35.6,24.6,29.71,ESE,105,3.0,6.7,64,0.00,,,-99.99,FreeWX 2.04,2013-01-27 03:03:00,
2013-01-26 20:13:00,35.6,25.0,29.71,North,-999,0.0,3.1,65,0.00,,,-99.99,FreeWX 2.04,2013-01-27 03:13:00,
2013-01-26 20:23:00,35.8,24.8,29.71,North,-999,0.0,0.0,64,0.00,,,-99.99,FreeWX 2.04,2013-01-27 03:23:00,
2013-01-26 20:33:00,35.4,24.8,29.71,North,-999,0.0,3.6,65,0.00,,,-99.99,FreeWX 2.04,2013-01-27 03:33:00,
2013-01-26 20:43:00,35.1,24.8,29.71,North,-999,0.0,2.7,66,0.00,,,-99.99,FreeWX 2.04,2013-01-27 03:43:00,
2013-01-26 20:53:00,34.5,25.0,29.71,North,-999,0.0,2.7,68,0.00,,,-99.99,FreeWX 2.04,2013-01-27 03:53:00,
2013-01-26 21:03:00,34.3,25.5,29.71,North,-999,0.0,3.1,70,0.00,,,-99.99,FreeWX 2.04,2013-01-27 04:03:00,
2013-01-26 21:13:00,34.3,26.2,29.71,SE,138,1.0,4.5,72,0.00,,,-99.99,FreeWX 2.04,2013-01-27 04:13:00,
2013-01-26 21:23:00,34.2,26.1,29.71,SE,138,1.0,3.6,72,0.00,,,-99.99,FreeWX 2.04,2013-01-27 04:23:00,
2013-01-26 21:33:00,34.0,26.2,29.71,North,-999,0.0,3.6,73,0.00,,,-99.99,FreeWX 2.04,2013-01-27 04:33:00,
2013-01-26 21:43:00,33.6,25.9,29.71,North,-999,0.0,3.6,73,0.00,,,-99.99,FreeWX 2.04,2013-01-27 04:43:00,
2013-01-26 21:53:00,33.8,26.4,29.71,North,-999,0.0,3.1,74,0.00,,,-99.99,FreeWX 2.04,2013-01-27 04:53:00,
2013-01-26 22:03:00,33.6,26.6,29.71,North,-999,0.0,2.7,75,0.00,,,-99.99,FreeWX 2.04,2013-01-27 05:03:00,
2013-01-26 22:13:00,33.4,26.4,29.71,North,-999,0.0,0.0,75,0.00,,,-99.99,FreeWX 2.04,2013-01-27 05:13:00,
2013-01-26 22:23:00,33.3,26.6,29.71,North,-999,0.0,0.0,76,0.00,,,-99.99,FreeWX 2.04,2013-01-27 05:23:00,
2013-01-26 22:33:00,33.3,26.6,29.71,North,-999,0.0,0.0,76,0.04,,,-99.99,FreeWX 2.04,2013-01-27 05:33:00,
2013-01-26 22:43:00,33.3,26.6,29.71,North,-999,0.0,3.6,76,0.04,,,-99.99,FreeWX 2.04,2013-01-27 05:43:00,
2013-01-26 22:53:00,33.3,26.8,29.71,North,-999,0.0,4.0,77,0.04,,,-99.99,FreeWX 2.04,2013-01-27 05:53:00,
2013-01-26 23:03:00,33.3,26.8,29.71,SE,138,1.0,4.9,77,0.04,,,-99.99,FreeWX 2.04,2013-01-27 06:03:00,
2013-01-26 23:13:00,33.4,27.0,29.71,SE,125,3.0,5.8,77,0.04,,,-99.99,FreeWX 2.04,2013-01-27 06:13:00,
2013-01-26 23:23:00,33.3,26.8,29.71,ESE,119,4.0,6.7,77,0.04,,,-99.99,FreeWX 2.04,2013-01-27 06:23:00,
2013-01-26 23:33:00,33.1,26.6,29.71,SE,126,2.0,5.8,77,0.00,,,-99.99,FreeWX 2.04,2013-01-27 06:33:00,
2013-01-26 23:43:00,32.9,26.4,29.71,East,95,3.0,5.4,77,0.00,,,-99.99,FreeWX 2.04,2013-01-27 06:43:00,
2013-01-26 23:53:00,33.1,27.0,29.71,ESE,118,4.0,6.3,78,0.00,,,-99.99,FreeWX 2.04,2013-01-27 06:53:00,